CW4784 Weather Reports


Display with metric or nautical units.
time (UTC)temp
F
wind
direction
speed
MPH
gust
MPH
rain 1hr
in
rain 24hr
in
rain mn
in
humidity
%
barometer
mb
20260507201518 69 263 4.0 14.0 0.00 0.02 0.00 20 1017.1
20260507201005 69 348 7.0 14.0 0.00 0.03 0.00 21 1017.3
20260507200511 68 23 4.0 12.0 0.00 0.03 0.00 23 1017.3
20260507200013 67 205 5.0 15.0 0.00 0.04 0.00 20 1017.3
20260507195503 67 186 2.0 15.0 0.00 0.05 0.00 21 1017.4
20260507195007 69 313 5.0 12.0 0.00 0.06 0.00 21 1017.5
20260507194510 69 41 5.0 12.0 0.00 0.06 0.00 23 1017.5
20260507194003 69 21 6.0 10.0 0.00 0.06 0.00 22 1017.5
20260507193508 68 312 3.0 8.0 0.00 0.06 0.00 21 1017.7
20260507193015 66 201 2.0 8.0 0.00 0.06 0.00 22 1017.7
20260507192508 67 333 4.0 9.0 0.00 0.06 0.00 22 1017.8
20260507192006 66 308 3.0 9.0 0.00 0.06 0.00 21 1017.8
20260507191529 66 271 4.0 9.0 0.00 0.06 0.00 25 1017.9
20260507191007 65 277 2.0 8.0 0.00 0.06 0.00 20 1017.9
20260507190507 65 185 1.0 6.0 0.00 0.06 0.00 20 1018.0
20260507190023 65 201 3.0 9.0 0.00 0.06 0.00 19 1018.1
20260507185506 66 344 3.0 9.0 0.00 0.06 0.00 20 1018.2
20260507185008 66 313 1.0 9.0 0.00 0.06 0.00 19 1018.3
20260507184514 66 360 2.0 9.0 0.00 0.06 0.00 18 1018.3
20260507184006 67 360 5.0 9.0 0.00 0.06 0.00 20 1018.5
20260507183507 63 255 1.0 7.0 0.00 0.06 0.00 18 1018.6
20260507183015 64 288 2.0 8.0 0.00 0.06 0.00 20 1018.6
20260507182507 64 152 2.0 8.0 0.00 0.06 0.00 19 1018.7
20260507182009 63 159 4.0 9.0 0.00 0.06 0.00 20 1018.8
20260507181513 63 130 2.0 9.0 0.00 0.06 0.00 18 1018.9
20260507181011 64 150 3.0 7.0 0.00 0.06 0.00 17 1019.0
20260507180507 63 319 0.0 10.0 0.00 0.06 0.00 19 1019.0
20260507180022 62 217 2.0 10.0 0.00 0.06 0.00 22 1019.1
20260507175509 62 204 5.0 10.0 0.00 0.06 0.00 19 1019.2
20260507175007 62 202 0.0 10.0 0.00 0.06 0.00 19 1019.2
20260507174517 62 202 6.0 10.0 0.00 0.06 0.00 20 1019.2
20260507174009 62 230 3.0 11.0 0.00 0.06 0.00 18 1019.2
20260507173506 63 122 4.0 11.0 0.00 0.06 0.00 19 1019.3
20260507173030 64 130 5.0 11.0 0.00 0.06 0.00 18 1019.4
20260507172507 62 173 1.0 10.0 0.00 0.07 0.00 20 1019.3
20260507172002 62 117 4.0 10.0 0.00 0.07 0.00 20 1019.3
20260507171507 61 167 3.0 10.0 0.00 0.07 0.00 20 1019.3
20260507171005 61 178 1.0 11.0 0.00 0.07 0.00 21 1019.3
20260507170503 62 165 5.0 11.0 0.00 0.07 0.00 20 1019.4
20260507170005 62 163 4.0 9.0 0.00 0.08 0.00 21 1019.4
20260507165503 62 113 5.0 9.0 0.00 0.08 0.00 19 1019.5
20260507165006 62 199 2.0 7.0 0.00 0.08 0.00 20 1019.6
20260507164504 62 155 1.0 5.0 0.00 0.08 0.00 20 1019.6
20260507164002 62 103 0.0 7.0 0.00 0.09 0.00 19 1019.7
20260507163503 61 104 2.0 7.0 0.00 0.09 0.00 18 1019.8
20260507163003 60 123 4.0 7.0 0.00 0.09 0.00 19 1019.8
20260507162505 59 204 2.0 7.0 0.00 0.10 0.00 18 1020.0
20260507162004 60 200 3.0 8.0 0.00 0.10 0.00 18 1020.0
20260507161507 60 184 2.0 9.0 0.00 0.11 0.00 21 1020.0
20260507161003 60 136 4.0 9.0 0.00 0.11 0.00 23 1020.0
20260507160504 59 134 4.0 9.0 0.00 0.11 0.00 19 1020.0
20260507160012 59 164 5.0 8.0 0.00 0.12 0.00 17 1020.0
20260507155505 59 168 4.0 7.0 0.00 0.12 0.00 19 1020.1
20260507155007 58 141 3.0 6.0 0.00 0.13 0.00 18 1020.1
20260507154514 58 157 3.0 8.0 0.00 0.13 0.00 16 1020.1
20260507154004 58 161 2.0 10.0 0.00 0.14 0.00 19 1020.1
20260507153504 58 188 5.0 10.0 0.00 0.15 0.00 20 1020.1
20260507153008 58 172 3.0 9.0 0.00 0.15 0.00 21 1020.1
20260507152502 58 183 4.0 9.0 0.00 0.16 0.00 23 1020.1
20260507152007 57 150 6.0 8.0 0.00 0.16 0.00 24 1020.1
20260507151510 57 148 4.0 8.0 0.00 0.16 0.00 25 1020.1
20260507151003 56 167 4.0 8.0 0.00 0.16 0.00 26 1020.1
20260507150506 56 360 3.0 8.0 0.00 0.16 0.00 30 1020.2
20260507150007 55 360 4.0 8.0 0.00 0.16 0.00 28 1020.2
20260507145507 55 360 3.0 5.0 0.00 0.16 0.00 29 1020.2
20260507145004 54 360 1.0 4.0 0.00 0.16 0.00 32 1020.3
20260507144506 53 360 1.0 5.0 0.00 0.16 0.00 34 1020.4
20260507144005 53 360 2.0 5.0 0.00 0.16 0.00 35 1020.4
20260507143504 52 360 1.0 4.0 0.00 0.16 0.00 41 1020.3
20260507143013 51 360 0.0 5.0 0.00 0.16 0.00 46 1020.4
20260507142505 50 360 3.0 5.0 0.00 0.16 0.00 46 1020.4
20260507142004 49 360 2.0 4.0 0.00 0.16 0.00 51 1020.3
20260507141508 49 360 0.0 3.0 0.00 0.16 0.00 52 1020.3
20260507141004 48 360 0.0 3.0 0.00 0.16 0.00 51 1020.4
20260507140507 47 234 0.0 3.0 0.00 0.16 0.00 54 1020.4
20260507140012 47 360 1.0 4.0 0.00 0.16 0.00 53 1020.4
20260507135503 46 360 1.0 5.0 0.00 0.16 0.00 54 1020.4
20260507135006 46 360 2.0 5.0 0.00 0.16 0.00 53 1020.5
20260507134518 45 360 2.0 4.0 0.00 0.16 0.00 58 1020.5
20260507134004 44 360 0.0 4.0 0.00 0.16 0.00 59 1020.4
20260507133508 43 360 2.0 5.0 0.00 0.16 0.00 59 1020.3
20260507133006 42 360 3.0 5.0 0.00 0.16 0.00 60 1020.4
20260507132506 41 14 3.0 4.0 0.00 0.16 0.00 61 1020.4
20260507132009 40 13 2.0 4.0 0.00 0.16 0.00 62 1020.4
20260507131513 40 13 3.0 7.0 0.00 0.16 0.00 63 1020.4
20260507131007 39 13 3.0 7.0 0.00 0.16 0.00 62 1020.4
20260507130506 38 13 2.0 6.0 0.00 0.16 0.00 62 1020.3
20260507130008 37 13 2.0 6.0 0.00 0.16 0.00 63 1020.2
20260507125504 37 360 3.0 7.0 0.00 0.16 0.00 64 1020.2
20260507125006 36 14 2.0 7.0 0.00 0.16 0.00 63 1020.3
20260507124514 36 13 3.0 7.0 0.00 0.16 0.00 64 1020.1
20260507124008 35 13 3.0 8.0 0.00 0.16 0.00 64 1020.2
20260507123504 35 13 5.0 8.0 0.00 0.16 0.00 65 1020.2
20260507123009 34 14 3.0 5.0 0.00 0.16 0.00 65 1020.1
20260507122504 34 14 2.0 5.0 0.00 0.16 0.00 64 1019.9
20260507122008 34 15 3.0 5.0 0.00 0.16 0.00 64 1019.9
20260507121508 33 17 4.0 6.0 0.00 0.16 0.00 65 1019.9
20260507121005 32 360 2.0 9.0 0.00 0.16 0.00 67 1019.9
20260507120507 32 360 5.0 9.0 0.00 0.16 0.00 67 1020.0
20260507120026 33 360 7.0 9.0 0.00 0.16 0.00 65 1020.0
20260507115507 33 360 6.0 9.0 0.00 0.16 0.00 64 1020.1
20260507115011 33 360 6.0 9.0 0.00 0.16 0.00 66 1020.0
20260507114512 33 360 4.0 10.0 0.00 0.16 0.00 66 1020.1
20260507114009 33 360 5.0 10.0 0.00 0.16 0.00 67 1020.0
20260507113506 33 360 5.0 10.0 0.00 0.16 0.00 67 1019.9
20260507113033 33 360 5.0 11.0 0.00 0.16 0.00 67 1019.9
20260507112508 33 360 7.0 11.0 0.00 0.16 0.00 68 1019.9
20260507112012 33 360 7.0 12.0 0.00 0.16 0.00 68 1020.0
20260507111514 34 360 8.0 12.0 0.00 0.16 0.00 67 1020.1
20260507111009 33 360 6.0 12.0 0.00 0.16 0.00 68 1020.2
20260507110505 33 360 8.0 12.0 0.00 0.16 0.00 68 1020.2
20260507110015 33 360 9.0 12.0 0.00 0.16 0.00 68 1020.2
20260507105507 33 360 8.0 11.0 0.00 0.16 0.00 67 1020.4
20260507105006 34 360 6.0 11.0 0.00 0.16 0.00 68 1020.4
20260507104516 33 360 7.0 11.0 0.00 0.16 0.00 71 1020.4
20260507104008 33 360 8.0 10.0 0.00 0.16 0.00 71 1020.5
20260507103508 32 360 5.0 8.0 0.00 0.16 0.00 72 1020.5
20260507103016 31 360 4.0 8.0 0.00 0.16 0.00 73 1020.5
20260507102503 31 360 5.0 8.0 0.00 0.16 0.00 75 1020.6
20260507102008 30 360 4.0 6.0 0.00 0.16 0.00 77 1020.7
20260507101516 30 360 3.0 6.0 0.00 0.16 0.00 76 1020.9
20260507101007 31 360 4.0 9.0 0.00 0.16 0.00 75 1020.9
20260507100507 31 360 4.0 9.0 0.00 0.16 0.00 75 1021.0
20260507100024 31 360 4.0 9.0 0.00 0.16 0.00 76 1020.9
20260507095509 31 360 5.0 8.0 0.00 0.16 0.00 77 1020.9
20260507095009 30 360 3.0 6.0 0.00 0.16 0.00 77 1020.9
20260507094511 30 360 4.0 6.0 0.00 0.16 0.00 78 1020.8
20260507094007 30 360 3.0 5.0 0.00 0.16 0.00 78 1020.7
20260507093505 30 360 3.0 5.0 0.00 0.16 0.00 80 1020.7
20260507093020 30 360 3.0 5.0 0.00 0.16 0.00 81 1020.7
20260507092507 30 360 3.0 5.0 0.00 0.16 0.00 81 1020.7
20260507092006 29 360 3.0 5.0 0.00 0.16 0.00 80 1020.7
20260507091522 30 360 4.0 5.0 0.00 0.16 0.00 78 1020.7
20260507091010 31 360 3.0 5.0 0.00 0.16 0.00 76 1020.6
20260507090504 32 360 1.0 3.0 0.00 0.16 0.00 75 1020.6
20260507090015 33 360 1.0 4.0 0.00 0.16 0.00 75 1020.5
20260507085505 33 360 2.0 6.0 0.00 0.16 0.00 77 1020.7
20260507085007 34 360 2.0 6.0 0.00 0.16 0.00 79 1020.6
20260507084520 32 360 4.0 6.0 0.00 0.16 0.00 83 1020.6
20260507084006 31 360 3.0 6.0 0.00 0.16 0.00 84 1020.5
20260507083506 30 360 3.0 6.0 0.00 0.16 0.00 84 1020.5
20260507083024 29 360 4.0 6.0 0.00 0.16 0.00 84 1020.6
20260507082512 29 360 3.0 6.0 0.00 0.16 0.00 83 1020.7
20260507082010 30 360 3.0 6.0 0.00 0.16 0.00 83 1020.7
20260507081523 31 360 3.0 6.0 0.00 0.16 0.00 83 1020.7
20260507081007 31 360 3.0 8.0 0.00 0.16 0.00 84 1020.7
20260507080508 30 360 4.0 8.0 0.00 0.17 0.00 83 1020.8
20260507080024 29 360 4.0 6.0 0.00 0.17 0.00 83 1020.8
20260507075510 29 360 2.0 6.0 0.00 0.17 0.00 83 1020.9
20260507075010 30 360 3.0 6.0 0.00 0.17 0.00 84 1020.9
20260507074531 29 360 3.0 5.0 0.00 0.17 0.00 86 1021.1
20260507074007 29 360 2.0 5.0 0.00 0.17 0.00 86 1021.0
20260507073508 28 360 3.0 5.0 0.00 0.17 0.00 86 1021.1
20260507073020 28 360 4.0 5.0 0.00 0.18 0.00 87 1021.1
20260507072509 28 360 2.0 4.0 0.00 0.18 0.00 87 1021.3
20260507072002 29 360 2.0 4.0 0.00 0.18 0.00 87 1021.1
20260507071505 29 360 2.0 3.0 0.00 0.18 0.00 87 1021.2
20260507071003 29 360 0.0 3.0 0.00 0.18 0.00 87 1021.1
20260507070504 29 360 2.0 4.0 0.00 0.18 0.00 87 1021.3
20260507070010 28 360 2.0 4.0 0.00 0.18 0.00 86 1021.3
20260507065507 28 360 2.0 4.0 0.00 0.18 0.00 86 1021.3
20260507065005 29 360 1.0 3.0 0.00 0.18 0.00 86 1021.3
20260507064508 30 360 1.0 4.0 0.00 0.18 0.00 88 1021.3
20260507064008 30 360 2.0 5.0 0.00 0.18 0.00 88 1021.4
20260507063504 29 360 3.0 5.0 0.00 0.18 0.00 88 1021.4
20260507063011 28 360 2.0 4.0 0.00 0.18 0.00 88 1021.4
20260507062508 28 360 2.0 4.0 0.00 0.19 0.00 89 1021.4
20260507062003 28 360 2.0 4.0 0.00 0.19 0.00 89 1021.4
20260507061513 28 360 2.0 5.0 0.00 0.19 0.00 89 1021.4
20260507061006 28 360 3.0 5.0 0.00 0.19 0.00 89 1021.3
20260507060507 28 360 3.0 5.0 0.00 0.19 0.00 90 1021.3
20260507060006 28 360 2.0 5.0 0.00 0.20 0.00 90 1021.3
20260507055504 28 360 3.0 5.0 0.00 0.20 0.20 89 1021.3
20260507055004 28 360 3.0 4.0 0.00 0.20 0.20 89 1021.2
20260507054508 28 360 1.0 3.0 0.00 0.20 0.20 89 1021.1
20260507054004 28 360 2.0 3.0 0.00 0.21 0.20 89 1021.1
20260507053504 28 360 2.0 4.0 0.00 0.21 0.20 89 1021.1
20260507053010 28 360 1.0 4.0 0.00 0.21 0.20 89 1021.1
20260507052509 28 360 0.0 3.0 0.00 0.21 0.20 89 1021.0
20260507052004 28 360 0.0 3.0 0.00 0.22 0.20 89 1021.0
20260507051510 28 360 1.0 3.0 0.00 0.22 0.20 89 1020.9
20260507051007 28 360 0.0 1.0 0.00 0.22 0.20 89 1020.9
20260507050503 28 360 0.0 1.0 0.00 0.23 0.20 88 1020.9
20260507050020 28 360 0.0 1.0 0.00 0.23 0.20 88 1021.0
20260507045504 28 360 0.0 0.0 0.00 0.24 0.20 88 1021.0
20260507045007 29 360 0.0 2.0 0.00 0.24 0.20 89 1021.1
20260507044510 29 360 0.0 2.0 0.00 0.25 0.20 89 1021.0
20260507044004 29 360 0.0 2.0 0.00 0.25 0.20 89 1020.9
20260507043503 29 360 0.0 3.0 0.00 0.25 0.20 89 1020.8
20260507043008 29 360 0.0 3.0 0.00 0.25 0.20 89 1020.9
20260507042507 29 360 1.0 4.0 0.00 0.25 0.20 89 1020.9
20260507042004 29 360 2.0 4.0 0.00 0.26 0.20 89 1020.9
20260507041518 29 360 0.0 0.0 0.00 0.26 0.20 89 1020.8
20260507041005 29 360 0.0 3.0 0.00 0.26 0.20 89 1020.9
20260507040507 29 360 0.0 3.0 0.00 0.26 0.20 89 1020.9
20260507040017 28 360 2.0 4.0 0.00 0.26 0.20 88 1020.8
20260507035510 28 360 2.0 4.0 0.00 0.27 0.20 88 1020.8
20260507035010 29 360 2.0 4.0 0.00 0.27 0.20 87 1020.8
20260507034514 29 360 2.0 4.0 0.00 0.27 0.20 87 1020.9
20260507034006 29 360 2.0 5.0 0.00 0.27 0.20 87 1020.9
20260507033506 30 360 3.0 5.0 0.00 0.27 0.20 87 1020.9
20260507033012 30 360 3.0 5.0 0.00 0.27 0.20 87 1021.0
20260507032506 30 360 2.0 4.0 0.00 0.27 0.20 87 1020.9
20260507032006 30 360 2.0 4.0 0.00 0.27 0.20 87 1020.8
20260507031513 30 360 2.0 4.0 0.00 0.28 0.20 87 1020.9
20260507031010 30 360 2.0 4.0 0.00 0.28 0.20 86 1020.9
20260507030506 30 360 2.0 4.0 0.00 0.28 0.20 86 1020.9
20260507030017 30 360 2.0 5.0 0.00 0.28 0.20 86 1020.9
20260507025508 31 360 3.0 6.0 0.00 0.28 0.20 86 1020.9
20260507025007 31 360 2.0 6.0 0.00 0.28 0.20 86 1021.0
20260507024511 31 360 3.0 6.0 0.00 0.28 0.20 86 1020.9
20260507024009 31 360 3.0 5.0 0.00 0.28 0.20 86 1020.9
20260507023506 31 360 3.0 5.0 0.00 0.28 0.20 85 1021.0
20260507023020 31 360 3.0 8.0 0.00 0.28 0.20 85 1021.0
20260507022512 31 360 3.0 8.0 0.00 0.28 0.20 85 1020.9
20260507022011 32 360 4.0 8.0 0.00 0.28 0.20 84 1020.9
20260507021518 32 360 5.0 6.0 0.00 0.28 0.20 84 1020.9
20260507021007 32 360 4.0 6.0 0.00 0.28 0.20 83 1020.9
20260507020506 32 360 3.0 8.0 0.00 0.28 0.20 82 1020.9
20260507020014 33 360 5.0 8.0 0.00 0.28 0.20 82 1020.9
20260507015507 33 360 5.0 8.0 0.00 0.28 0.20 82 1020.9
20260507015007 33 360 3.0 5.0 0.00 0.28 0.20 81 1020.9
20260507014515 34 360 3.0 5.0 0.00 0.28 0.20 80 1020.9
20260507014007 34 360 3.0 7.0 0.00 0.28 0.20 79 1020.9
20260507013508 35 13 3.0 8.0 0.00 0.28 0.20 79 1020.8
20260507013022 35 360 4.0 8.0 0.00 0.28 0.20 79 1020.8
20260507012506 36 360 4.0 9.0 0.00 0.28 0.20 78 1020.9
20260507012007 36 360 5.0 12.0 0.00 0.28 0.20 78 1020.9
20260507011524 36 360 6.0 12.0 0.00 0.28 0.20 78 1020.9
20260507011006 36 13 9.0 12.0 0.00 0.28 0.20 78 1020.9
20260507010511 36 12 9.0 12.0 0.00 0.28 0.20 78 1021.0
20260507010033 36 13 9.0 14.0 0.00 0.28 0.20 78 1021.0
20260507005508 37 13 10.0 14.0 0.00 0.28 0.20 78 1021.0
20260507005011 37 14 9.0 12.0 0.00 0.28 0.20 78 1021.1
20260507004514 37 16 8.0 12.0 0.00 0.28 0.20 78 1020.9
20260507004006 37 360 8.0 13.0 0.00 0.28 0.20 78 1020.8
20260507003507 37 360 10.0 14.0 0.00 0.28 0.20 78 1020.9
20260507003002 38 360 11.0 14.0 0.00 0.28 0.20 77 1020.9
20260507002502 39 12 10.0 13.0 0.00 0.28 0.20 75 1020.8
20260507002003 40 360 8.0 12.0 0.00 0.28 0.20 72 1020.8
20260507001504 40 360 5.0 8.0 0.00 0.28 0.20 72 1020.9
20260507001003 40 360 3.0 7.0 0.00 0.28 0.20 74 1021.0
20260507000503 39 15 3.0 5.0 0.00 0.29 0.20 74 1021.1
20260507000008 38 16 2.0 5.0 0.00 0.30 0.20 72 1020.9
20260506235504 39 16 2.0 5.0 0.00 0.31 0.20 72 1020.9
20260506235004 38 15 1.0 4.0 0.00 0.32 0.20 72 1020.9
20260506234513 39 17 2.0 5.0 0.00 0.34 0.20 73 1020.9
20260506234007 39 15 2.0 5.0 0.00 0.34 0.20 69 1020.9
20260506233504 41 16 1.0 4.0 0.00 0.35 0.20 73 1020.9
20260506233010 41 360 0.0 6.0 0.00 0.36 0.20 74 1020.9
20260506232502 41 360 2.0 6.0 0.00 0.36 0.20 72 1020.9
20260506232002 40 360 3.0 6.0 0.00 0.36 0.20 69 1020.6
20260506231508 41 360 0.0 9.0 0.00 0.36 0.20 73 1020.6
20260506231004 42 360 2.0 9.0 0.00 0.36 0.20 74 1020.5
20260506230502 41 360 3.0 8.0 0.00 0.36 0.20 75 1020.4
20260506230005 41 360 3.0 8.0 0.00 0.36 0.20 79 1020.5
20260506225504 40 16 4.0 10.0 0.00 0.36 0.20 79 1020.5
20260506225005 40 9 5.0 10.0 0.00 0.36 0.20 81 1020.5
20260506224516 39 360 5.0 10.0 0.00 0.36 0.20 82 1020.5
20260506224004 38 360 6.0 9.0 0.00 0.37 0.20 81 1020.6
20260506223506 39 360 3.0 9.0 0.00 0.37 0.20 81 1020.5
20260506223012 38 360 5.0 10.0 0.00 0.37 0.20 81 1020.5
20260506222504 39 18 5.0 11.0 0.00 0.37 0.20 79 1020.6
20260506222003 40 15 8.0 11.0 0.00 0.37 0.20 80 1020.7
20260506221512 40 17 6.0 11.0 0.00 0.37 0.20 83 1020.7
20260506221005 38 16 7.0 10.0 0.00 0.37 0.20 83 1020.6
20260506220508 38 16 6.0 11.0 0.00 0.37 0.20 84 1020.5
20260506220028 37 16 6.0 11.0 0.00 0.37 0.20 84 1020.4
20260506215502 37 15 4.0 11.0 0.00 0.37 0.20 85 1020.7
20260506215003 37 16 8.0 11.0 0.00 0.37 0.20 85 1020.6
20260506214506 36 16 5.0 11.0 0.00 0.37 0.20 85 1020.5
20260506214005 37 16 8.0 11.0 0.00 0.37 0.20 85 1020.6
20260506213505 37 15 6.0 11.0 0.00 0.37 0.20 87 1020.6
20260506213011 36 16 6.0 12.0 0.00 0.37 0.20 87 1020.6
20260506212504 36 16 8.0 12.0 0.01 0.37 0.20 87 1020.7
20260506212006 35 5 8.0 12.0 0.01 0.37 0.20 87 1020.6
20260506211517 35 16 7.0 12.0 0.02 0.37 0.20 87 1020.9
20260506211009 35 16 7.0 11.0 0.03 0.37 0.20 88 1021.0
20260506210506 35 17 8.0 10.0 0.03 0.37 0.20 88 1021.1
20260506210008 35 16 6.0 10.0 0.04 0.37 0.20 88 1021.3
20260506205507 35 16 5.0 10.0 0.05 0.37 0.20 89 1021.1
20260506205008 35 16 6.0 12.0 0.06 0.37 0.20 90 1020.9
20260506204516 34 16 8.0 13.0 0.06 0.37 0.20 90 1020.7
20260506204004 34 5 9.0 13.0 0.06 0.37 0.20 90 1020.4
20260506203510 34 5 8.0 12.0 0.06 0.37 0.20 90 1020.4
20260506203008 34 16 7.0 12.0 0.06 0.37 0.20 91 1020.4
20260506202503 34 5 8.0 13.0 0.05 0.36 0.19 91 1020.4
20260506202004 34 16 9.0 13.0 0.05 0.36 0.19 92 1020.4